Year,Month,Day,Hour,Minute,Value (Times are PST for temperature in C)
2009,08,20,00,00,16.70
2009,08,20,00,01,16.70
2009,08,20,00,02,16.70
2009,08,20,00,03,16.70
2009,08,20,00,04,16.70
2009,08,20,00,05,16.70
2009,08,20,00,06,16.70
2009,08,20,00,07,16.70
2009,08,20,00,08,16.70
2009,08,20,00,09,16.70
2009,08,20,00,10,16.70
2009,08,20,00,11,16.70
2009,08,20,00,12,16.70
2009,08,20,00,13,16.70
2009,08,20,00,14,16.70
2009,08,20,00,15,16.70
2009,08,20,00,16,16.70
2009,08,20,00,17,16.80
2009,08,20,00,18,16.80
2009,08,20,00,19,16.80
2009,08,20,00,20,16.80
2009,08,20,00,21,16.80
2009,08,20,00,22,16.80
2009,08,20,00,23,16.80
2009,08,20,00,24,16.80
2009,08,20,00,25,16.90
2009,08,20,00,26,16.90
2009,08,20,00,27,16.90
2009,08,20,00,28,16.90
2009,08,20,00,29,16.90
2009,08,20,00,30,16.90
2009,08,20,00,31,17.00
2009,08,20,00,32,17.00
2009,08,20,00,33,17.00
2009,08,20,00,34,17.00
2009,08,20,00,35,17.00
2009,08,20,00,36,17.00
2009,08,20,00,37,17.00
2009,08,20,00,38,17.00
2009,08,20,00,39,17.10
2009,08,20,00,40,17.10
2009,08,20,00,41,17.10
2009,08,20,00,42,17.10
2009,08,20,00,43,17.10
2009,08,20,00,44,17.20
2009,08,20,00,45,17.20
2009,08,20,00,46,17.20
2009,08,20,00,47,17.20
2009,08,20,00,48,17.20
2009,08,20,00,49,17.30
2009,08,20,00,50,17.30
2009,08,20,00,51,17.30
2009,08,20,00,52,17.30
2009,08,20,00,53,17.30
2009,08,20,00,54,17.30
2009,08,20,00,55,17.30
2009,08,20,00,56,17.30
2009,08,20,00,57,17.30
2009,08,20,00,58,17.30
2009,08,20,00,59,17.30
2009,08,20,01,00,17.40
2009,08,20,01,01,17.40
2009,08,20,01,02,17.40
2009,08,20,01,03,17.40
2009,08,20,01,04,17.40
2009,08,20,01,05,17.40
2009,08,20,01,06,17.40
2009,08,20,01,07,17.40
2009,08,20,01,08,17.40
2009,08,20,01,09,17.40
2009,08,20,01,10,17.50
2009,08,20,01,11,17.50
2009,08,20,01,12,17.50
2009,08,20,01,13,17.50
2009,08,20,01,14,17.50
2009,08,20,01,15,17.60
2009,08,20,01,16,17.60
2009,08,20,01,17,17.60
2009,08,20,01,18,17.60
2009,08,20,01,19,17.60
2009,08,20,01,20,17.60
2009,08,20,01,21,17.60
2009,08,20,01,22,17.60
2009,08,20,01,23,17.60
2009,08,20,01,24,17.60
2009,08,20,01,25,17.60
2009,08,20,01,26,17.50
2009,08,20,01,27,17.50
2009,08,20,01,28,17.50
2009,08,20,01,29,17.50
2009,08,20,01,30,17.50
2009,08,20,01,31,17.60
2009,08,20,01,32,17.60
2009,08,20,01,33,17.60
2009,08,20,01,34,17.60
2009,08,20,01,35,17.60
2009,08,20,01,36,17.60
2009,08,20,01,37,17.60
2009,08,20,01,38,17.60
2009,08,20,01,39,17.60
2009,08,20,01,40,17.60
2009,08,20,01,41,17.60
2009,08,20,01,42,17.60
2009,08,20,01,43,17.50
2009,08,20,01,44,17.50
2009,08,20,01,45,17.50
2009,08,20,01,46,17.50
2009,08,20,01,47,17.40
2009,08,20,01,48,17.30
2009,08,20,01,49,17.20
2009,08,20,01,50,16.90
2009,08,20,01,51,16.60
2009,08,20,01,52,16.40
2009,08,20,01,53,16.20
2009,08,20,01,54,16.00
2009,08,20,01,55,15.80
2009,08,20,01,56,15.70
2009,08,20,01,57,15.60
2009,08,20,01,58,15.60
2009,08,20,01,59,15.50
2009,08,20,02,00,15.50
2009,08,20,02,01,15.50
2009,08,20,02,02,15.40
2009,08,20,02,03,15.40
2009,08,20,02,04,15.40
2009,08,20,02,05,15.40
2009,08,20,02,06,15.40
2009,08,20,02,07,15.40
2009,08,20,02,08,15.40
2009,08,20,02,09,15.50
2009,08,20,02,10,15.50
2009,08,20,02,11,15.50
2009,08,20,02,12,15.60
2009,08,20,02,13,15.60
2009,08,20,02,14,15.70
2009,08,20,02,15,15.70
2009,08,20,02,16,15.80
2009,08,20,02,17,15.70
2009,08,20,02,18,15.70
2009,08,20,02,19,15.60
2009,08,20,02,20,15.50
2009,08,20,02,21,15.50
2009,08,20,02,22,15.50
2009,08,20,02,23,15.50
2009,08,20,02,24,15.40
2009,08,20,02,25,15.40
2009,08,20,02,26,15.40
2009,08,20,02,27,15.40
2009,08,20,02,28,15.30
2009,08,20,02,29,15.30
2009,08,20,02,30,15.30
2009,08,20,02,31,15.30
2009,08,20,02,32,15.30
2009,08,20,02,33,15.30
2009,08,20,02,34,15.20
2009,08,20,02,35,15.20
2009,08,20,02,36,15.20
2009,08,20,02,37,15.20
2009,08,20,02,38,15.20
2009,08,20,02,39,15.20
2009,08,20,02,40,15.20
2009,08,20,02,41,15.30
2009,08,20,02,42,15.30
2009,08,20,02,43,15.30
2009,08,20,02,44,15.30
2009,08,20,02,45,15.30
2009,08,20,02,46,15.30
2009,08,20,02,47,15.30
2009,08,20,02,48,15.30
2009,08,20,02,49,15.30
2009,08,20,02,50,15.30
2009,08,20,02,51,15.40
2009,08,20,02,52,15.40
2009,08,20,02,53,15.40
2009,08,20,02,54,15.50
2009,08,20,02,55,15.50
2009,08,20,02,56,15.50
2009,08,20,02,57,15.60
2009,08,20,02,58,15.60
2009,08,20,02,59,15.60
2009,08,20,03,00,15.70
2009,08,20,03,01,15.70
2009,08,20,03,02,15.70
2009,08,20,03,03,15.80
2009,08,20,03,04,15.80
2009,08,20,03,05,15.80
2009,08,20,03,06,15.80
2009,08,20,03,07,15.80
2009,08,20,03,08,15.80
2009,08,20,03,09,15.90
2009,08,20,03,10,15.90
2009,08,20,03,11,15.90
2009,08,20,03,12,16.00
2009,08,20,03,13,16.10
2009,08,20,03,14,16.10
2009,08,20,03,15,16.10
2009,08,20,03,16,16.10
2009,08,20,03,17,16.10
2009,08,20,03,18,16.20
2009,08,20,03,19,16.20
2009,08,20,03,20,16.20
2009,08,20,03,21,16.20
2009,08,20,03,22,16.20
2009,08,20,03,23,16.20
2009,08,20,03,24,16.30
2009,08,20,03,25,16.30
2009,08,20,03,26,16.30
2009,08,20,03,27,16.30
2009,08,20,03,28,16.30
2009,08,20,03,29,16.30
2009,08,20,03,30,16.20
2009,08,20,03,31,16.10
2009,08,20,03,32,16.10
2009,08,20,03,33,16.00
2009,08,20,03,34,15.90
2009,08,20,03,35,15.80
2009,08,20,03,36,15.80
2009,08,20,03,37,15.80
2009,08,20,03,38,15.80
2009,08,20,03,39,15.80
2009,08,20,03,40,15.80
2009,08,20,03,41,15.80
2009,08,20,03,42,15.80
2009,08,20,03,43,15.80
2009,08,20,03,44,15.80
2009,08,20,03,45,15.80
2009,08,20,03,46,15.80
2009,08,20,03,47,15.80
2009,08,20,03,48,15.80
2009,08,20,03,49,15.80
2009,08,20,03,50,15.80
2009,08,20,03,51,15.80
2009,08,20,03,52,15.90
2009,08,20,03,53,15.90
2009,08,20,03,54,15.90
2009,08,20,03,55,15.90
2009,08,20,03,56,16.00
2009,08,20,03,57,16.10
2009,08,20,03,58,16.10
2009,08,20,03,59,16.10
2009,08,20,04,00,16.10
2009,08,20,04,01,16.10
2009,08,20,04,02,16.10
2009,08,20,04,03,16.10
2009,08,20,04,04,16.20
2009,08,20,04,05,16.20
2009,08,20,04,06,16.20
2009,08,20,04,07,16.20
2009,08,20,04,08,16.30
2009,08,20,04,09,16.30
2009,08,20,04,10,16.30
2009,08,20,04,11,16.30
2009,08,20,04,12,16.30
2009,08,20,04,13,16.40
2009,08,20,04,14,16.40
2009,08,20,04,15,16.40
2009,08,20,04,16,16.40
2009,08,20,04,17,16.50
2009,08,20,04,18,16.60
2009,08,20,04,19,16.60
2009,08,20,04,20,16.70
2009,08,20,04,21,16.70
2009,08,20,04,22,16.70
2009,08,20,04,23,16.70
2009,08,20,04,24,16.70
2009,08,20,04,25,16.80
2009,08,20,04,26,16.80
2009,08,20,04,27,16.80
2009,08,20,04,28,16.70
2009,08,20,04,29,16.60
2009,08,20,04,30,16.50
2009,08,20,04,31,16.30
2009,08,20,04,32,16.20
2009,08,20,04,33,16.10
2009,08,20,04,34,16.10
2009,08,20,04,35,16.00
2009,08,20,04,36,15.90
2009,08,20,04,37,15.80
2009,08,20,04,38,15.80
2009,08,20,04,39,15.70
2009,08,20,04,40,15.50
2009,08,20,04,41,15.30
2009,08,20,04,42,15.20
2009,08,20,04,43,15.20
2009,08,20,04,44,15.10
2009,08,20,04,45,15.00
2009,08,20,04,46,14.90
2009,08,20,04,47,14.90
2009,08,20,04,48,14.80
2009,08,20,04,49,14.80
2009,08,20,04,50,14.70
2009,08,20,04,51,14.60
2009,08,20,04,52,14.60
2009,08,20,04,53,14.50
2009,08,20,04,54,14.50
2009,08,20,04,55,14.50
2009,08,20,04,56,14.40
2009,08,20,04,57,14.30
2009,08,20,04,58,14.30
2009,08,20,04,59,14.30
2009,08,20,05,00,14.20
2009,08,20,05,01,14.20
2009,08,20,05,02,14.20
2009,08,20,05,03,14.20
2009,08,20,05,04,14.20
2009,08,20,05,05,14.20
2009,08,20,05,06,14.20
2009,08,20,05,07,14.20
2009,08,20,05,08,14.20
2009,08,20,05,09,14.20
2009,08,20,05,10,14.10
2009,08,20,05,11,14.10
2009,08,20,05,12,14.10
2009,08,20,05,13,14.10
2009,08,20,05,14,14.10
2009,08,20,05,15,14.10
2009,08,20,05,16,14.10
2009,08,20,05,17,14.10
2009,08,20,05,18,14.00
2009,08,20,05,19,14.00
2009,08,20,05,20,14.00
2009,08,20,05,21,14.00
2009,08,20,05,22,14.00
2009,08,20,05,23,14.00
2009,08,20,05,24,14.00
2009,08,20,05,25,14.00
2009,08,20,05,26,14.00
2009,08,20,05,27,13.90
2009,08,20,05,28,13.90
2009,08,20,05,29,13.90
2009,08,20,05,30,13.90
2009,08,20,05,31,13.90
2009,08,20,05,32,13.80
2009,08,20,05,33,13.80
2009,08,20,05,34,13.80
2009,08,20,05,35,13.80
2009,08,20,05,36,13.80
2009,08,20,05,37,13.70
2009,08,20,05,38,13.70
2009,08,20,05,39,13.70
2009,08,20,05,40,13.70
2009,08,20,05,41,13.70
2009,08,20,05,42,13.70
2009,08,20,05,43,13.70
2009,08,20,05,44,13.70
2009,08,20,05,45,13.70
2009,08,20,05,46,13.70
2009,08,20,05,47,13.70
2009,08,20,05,48,13.70
2009,08,20,05,49,13.80
2009,08,20,05,50,13.80
2009,08,20,05,51,13.80
2009,08,20,05,52,13.80
2009,08,20,05,53,13.80
2009,08,20,05,54,13.80
2009,08,20,05,55,13.90
2009,08,20,05,56,13.90
2009,08,20,05,57,13.90
2009,08,20,05,58,14.00
2009,08,20,05,59,14.00
2009,08,20,06,00,14.10
2009,08,20,06,01,14.10
2009,08,20,06,02,14.00
2009,08,20,06,03,14.00
2009,08,20,06,04,13.90
2009,08,20,06,05,13.90
2009,08,20,06,06,13.80
2009,08,20,06,07,13.70
2009,08,20,06,08,13.70
2009,08,20,06,09,13.60
2009,08,20,06,10,13.50
2009,08,20,06,11,13.50
2009,08,20,06,12,13.40
2009,08,20,06,13,13.30
2009,08,20,06,14,13.30
2009,08,20,06,15,13.30
2009,08,20,06,16,13.30
2009,08,20,06,17,13.30
2009,08,20,06,18,13.20
2009,08,20,06,19,13.20
2009,08,20,06,20,13.20
2009,08,20,06,21,13.10
2009,08,20,06,22,13.10
2009,08,20,06,23,13.00
2009,08,20,06,24,13.00
2009,08,20,06,25,13.00
2009,08,20,06,26,13.00
2009,08,20,06,27,12.90
2009,08,20,06,28,12.90
2009,08,20,06,29,12.90
2009,08,20,06,30,12.90
2009,08,20,06,31,12.80
2009,08,20,06,32,12.80
2009,08,20,06,33,12.80
2009,08,20,06,34,12.80
2009,08,20,06,35,12.80
2009,08,20,06,36,12.80
2009,08,20,06,37,12.80
2009,08,20,06,38,12.80
2009,08,20,06,39,12.80
2009,08,20,06,40,12.80
2009,08,20,06,41,12.80
2009,08,20,06,42,12.80
2009,08,20,06,43,12.80
2009,08,20,06,44,12.80
2009,08,20,06,45,12.70
2009,08,20,06,46,12.70
2009,08,20,06,47,12.70
2009,08,20,06,48,12.70
2009,08,20,06,49,12.70
2009,08,20,06,50,12.70
2009,08,20,06,51,12.70
2009,08,20,06,52,12.70
2009,08,20,06,53,12.70
2009,08,20,06,54,12.70
2009,08,20,06,55,12.70
2009,08,20,06,56,12.70
2009,08,20,06,57,12.70
2009,08,20,06,58,12.70
2009,08,20,06,59,12.80
2009,08,20,07,00,12.80
2009,08,20,07,01,12.80
2009,08,20,07,02,12.80
2009,08,20,07,03,12.80
2009,08,20,07,04,12.80
2009,08,20,07,05,12.80
2009,08,20,07,06,12.80
2009,08,20,07,07,12.90
2009,08,20,07,08,12.90
2009,08,20,07,09,13.00
2009,08,20,07,10,13.00
2009,08,20,07,11,13.10
2009,08,20,07,12,13.10
2009,08,20,07,13,13.20
2009,08,20,07,14,13.20
2009,08,20,07,15,13.30
2009,08,20,07,16,13.30
2009,08,20,07,17,13.40
2009,08,20,07,18,13.40
2009,08,20,07,19,13.50
2009,08,20,07,20,13.50
2009,08,20,07,21,13.50
2009,08,20,07,22,13.60
2009,08,20,07,23,13.60
2009,08,20,07,24,13.70
2009,08,20,07,25,13.70
2009,08,20,07,26,13.70
2009,08,20,07,27,13.70
2009,08,20,07,28,13.70
2009,08,20,07,29,13.80
2009,08,20,07,30,13.80
2009,08,20,07,31,13.80
2009,08,20,07,32,13.90
2009,08,20,07,33,13.90
2009,08,20,07,34,13.90
2009,08,20,07,35,14.00
2009,08,20,07,36,14.00
2009,08,20,07,37,14.00
2009,08,20,07,38,14.10
2009,08,20,07,39,14.10
2009,08,20,07,40,14.20
2009,08,20,07,41,14.20
2009,08,20,07,42,14.20
2009,08,20,07,43,14.20
2009,08,20,07,44,14.20
2009,08,20,07,45,14.20
2009,08,20,07,46,14.30
2009,08,20,07,47,14.30
2009,08,20,07,48,14.40
2009,08,20,07,49,14.40
2009,08,20,07,50,14.50
2009,08,20,07,51,14.50
2009,08,20,07,52,14.60
2009,08,20,07,53,14.60
2009,08,20,07,54,14.70
2009,08,20,07,55,14.80
2009,08,20,07,56,14.70
2009,08,20,07,57,14.70
2009,08,20,07,58,14.70
2009,08,20,07,59,14.70
2009,08,20,08,00,14.70
2009,08,20,08,01,14.80
2009,08,20,08,02,14.80
2009,08,20,08,03,14.80
2009,08,20,08,04,14.80
2009,08,20,08,05,14.80
2009,08,20,08,06,14.80
2009,08,20,08,07,14.90
2009,08,20,08,08,14.90
2009,08,20,08,09,14.90
2009,08,20,08,10,14.80
2009,08,20,08,11,14.90
2009,08,20,08,12,14.80
2009,08,20,08,13,14.80
2009,08,20,08,14,14.90
2009,08,20,08,15,14.90
2009,08,20,08,16,15.00
2009,08,20,08,17,15.10
2009,08,20,08,18,15.20
2009,08,20,08,19,15.20
2009,08,20,08,20,15.30
2009,08,20,08,21,15.30
2009,08,20,08,22,15.40
2009,08,20,08,23,15.50
2009,08,20,08,24,15.60
2009,08,20,08,25,15.60
2009,08,20,08,26,15.80
2009,08,20,08,27,15.80
2009,08,20,08,28,15.70
2009,08,20,08,29,15.70
2009,08,20,08,30,15.70
2009,08,20,08,31,15.70
2009,08,20,08,32,15.70
2009,08,20,08,33,15.80
2009,08,20,08,34,15.80
2009,08,20,08,35,15.80
2009,08,20,08,36,15.90
2009,08,20,08,37,16.00
2009,08,20,08,38,16.10
2009,08,20,08,39,16.20
2009,08,20,08,40,16.30
2009,08,20,08,41,16.40
2009,08,20,08,42,16.50
2009,08,20,08,43,16.70
2009,08,20,08,44,16.80
2009,08,20,08,45,16.90
2009,08,20,08,46,16.90
2009,08,20,08,47,17.00
2009,08,20,08,48,17.00
2009,08,20,08,49,17.00
2009,08,20,08,50,16.90
2009,08,20,08,51,16.80
2009,08,20,08,52,16.70
2009,08,20,08,53,16.60
2009,08,20,08,54,16.40
2009,08,20,08,55,16.40
2009,08,20,08,56,16.40
2009,08,20,08,57,16.40
2009,08,20,08,58,16.50
2009,08,20,08,59,16.60
2009,08,20,09,00,16.70
2009,08,20,09,01,16.60
2009,08,20,09,02,16.60
2009,08,20,09,03,16.60
2009,08,20,09,04,16.60
2009,08,20,09,05,16.60
2009,08,20,09,06,16.40
2009,08,20,09,07,16.40
2009,08,20,09,08,16.40
2009,08,20,09,09,16.40
2009,08,20,09,10,16.30
2009,08,20,09,11,16.30
2009,08,20,09,12,16.20
2009,08,20,09,13,16.20
2009,08,20,09,14,16.00
2009,08,20,09,15,15.80
2009,08,20,09,16,15.80
2009,08,20,09,17,15.80
2009,08,20,09,18,15.80
2009,08,20,09,19,15.90
2009,08,20,09,20,16.00
2009,08,20,09,21,16.10
2009,08,20,09,22,16.20
2009,08,20,09,23,16.30
2009,08,20,09,24,16.30
2009,08,20,09,25,16.30
2009,08,20,09,26,16.20
2009,08,20,09,27,16.30
2009,08,20,09,28,16.30
2009,08,20,09,29,16.20
2009,08,20,09,30,16.20
2009,08,20,09,31,16.10
2009,08,20,09,32,15.90
2009,08,20,09,33,15.70
2009,08,20,09,34,15.60
2009,08,20,09,35,15.60
2009,08,20,09,36,15.60
2009,08,20,09,37,15.50
2009,08,20,09,38,15.30
2009,08,20,09,39,15.30
2009,08,20,09,40,15.30
2009,08,20,09,41,15.20
2009,08,20,09,42,15.20
2009,08,20,09,43,15.20
2009,08,20,09,44,15.20
2009,08,20,09,45,15.10
2009,08,20,09,46,15.10
2009,08,20,09,47,15.10
2009,08,20,09,48,15.20
2009,08,20,09,49,15.30
2009,08,20,09,50,15.30
2009,08,20,09,51,15.30
2009,08,20,09,52,15.30
2009,08,20,09,53,15.30
2009,08,20,09,54,15.40
2009,08,20,09,55,15.50
2009,08,20,09,56,15.50
2009,08,20,09,57,15.70
2009,08,20,09,58,15.80
2009,08,20,09,59,15.90
2009,08,20,10,00,16.10
2009,08,20,10,01,16.10
2009,08,20,10,02,16.20
2009,08,20,10,03,16.20
2009,08,20,10,04,16.20
2009,08,20,10,05,16.20
2009,08,20,10,06,16.20
2009,08,20,10,07,16.20
2009,08,20,10,08,16.20
2009,08,20,10,09,16.20
2009,08,20,10,10,16.30
2009,08,20,10,11,16.30
2009,08,20,10,12,16.40
2009,08,20,10,13,16.40
2009,08,20,10,14,16.40
2009,08,20,10,15,16.40
2009,08,20,10,16,16.30
2009,08,20,10,17,16.10
2009,08,20,10,18,16.10
2009,08,20,10,19,16.00
2009,08,20,10,20,15.90
2009,08,20,10,21,15.90
2009,08,20,10,22,16.00
2009,08,20,10,23,16.10
2009,08,20,10,24,16.10
2009,08,20,10,25,16.20
2009,08,20,10,26,16.30
2009,08,20,10,27,16.40
2009,08,20,10,28,16.40
2009,08,20,10,29,16.40
2009,08,20,10,30,16.50
2009,08,20,10,31,16.60
2009,08,20,10,32,16.70
2009,08,20,10,33,16.70
2009,08,20,10,34,16.70
2009,08,20,10,35,16.60
2009,08,20,10,36,16.60
2009,08,20,10,37,16.60
2009,08,20,10,38,16.70
2009,08,20,10,39,16.80
2009,08,20,10,40,16.80
2009,08,20,10,41,16.90
2009,08,20,10,42,17.00
2009,08,20,10,43,17.00
2009,08,20,10,44,17.00
2009,08,20,10,45,17.00
2009,08,20,10,46,17.10
2009,08,20,10,47,17.10
2009,08,20,10,48,17.20
2009,08,20,10,49,17.30
2009,08,20,10,50,17.40
2009,08,20,10,51,17.50
2009,08,20,10,52,17.70
2009,08,20,10,53,17.60
2009,08,20,10,54,17.50
2009,08,20,10,55,17.40
2009,08,20,10,56,17.30
2009,08,20,10,57,17.30
2009,08,20,10,58,17.30
2009,08,20,10,59,17.30
2009,08,20,11,00,17.40
2009,08,20,11,01,17.60
2009,08,20,11,02,17.70
2009,08,20,11,03,17.80
2009,08,20,11,04,17.90
2009,08,20,11,05,18.00
2009,08,20,11,06,18.10
2009,08,20,11,07,18.10
2009,08,20,11,08,18.20
2009,08,20,11,09,18.20
2009,08,20,11,10,18.20
2009,08,20,11,11,18.20
2009,08,20,11,12,18.30
2009,08,20,11,13,18.40
2009,08,20,11,14,18.40
2009,08,20,11,15,18.40
2009,08,20,11,16,18.40
2009,08,20,11,17,18.50
2009,08,20,11,18,18.60
2009,08,20,11,19,18.80
2009,08,20,11,20,18.70
2009,08,20,11,21,18.60
2009,08,20,11,22,18.40
2009,08,20,11,23,18.30
2009,08,20,11,24,18.40
2009,08,20,11,25,18.60
2009,08,20,11,26,18.60
2009,08,20,11,27,18.50
2009,08,20,11,28,18.40
2009,08,20,11,29,18.20
2009,08,20,11,30,18.20
2009,08,20,11,31,18.20
2009,08,20,11,32,18.40
2009,08,20,11,33,18.60
2009,08,20,11,34,18.70
2009,08,20,11,35,18.70
2009,08,20,11,36,18.80
2009,08,20,11,37,18.90
2009,08,20,11,38,19.00
2009,08,20,11,39,19.20
2009,08,20,11,40,19.40
2009,08,20,11,41,19.50
2009,08,20,11,42,19.60
2009,08,20,11,43,19.60
2009,08,20,11,44,19.80
2009,08,20,11,45,20.00
2009,08,20,11,46,20.20
2009,08,20,11,47,20.30
2009,08,20,11,48,20.50
2009,08,20,11,49,20.70
2009,08,20,11,50,20.80
2009,08,20,11,51,20.70
2009,08,20,11,52,20.50
2009,08,20,11,53,20.20
2009,08,20,11,54,19.80
2009,08,20,11,55,19.40
2009,08,20,11,56,19.20
2009,08,20,11,57,19.10
2009,08,20,11,58,19.10
2009,08,20,11,59,19.00
2009,08,20,12,00,18.80
2009,08,20,12,01,18.70
2009,08,20,12,02,18.50
2009,08,20,12,03,18.40
2009,08,20,12,04,18.30
2009,08,20,12,05,18.20
2009,08,20,12,06,18.20
2009,08,20,12,07,18.20
2009,08,20,12,08,18.20
2009,08,20,12,09,18.30
2009,08,20,12,10,18.50
2009,08,20,12,11,18.50
2009,08,20,12,12,18.40
2009,08,20,12,13,18.40
2009,08,20,12,14,18.50
2009,08,20,12,15,18.50
2009,08,20,12,16,18.60
2009,08,20,12,17,18.60
2009,08,20,12,18,18.70
2009,08,20,12,19,18.70
2009,08,20,12,20,18.70
2009,08,20,12,21,18.80
2009,08,20,12,22,18.90
2009,08,20,12,23,18.70
2009,08,20,12,24,18.60
2009,08,20,12,25,18.50
2009,08,20,12,26,18.40
2009,08,20,12,27,18.30
2009,08,20,12,28,18.20
2009,08,20,12,29,18.20
2009,08,20,12,30,18.20
2009,08,20,12,31,18.30
2009,08,20,12,32,18.50
2009,08,20,12,33,18.60
2009,08,20,12,34,18.80
2009,08,20,12,35,19.10
2009,08,20,12,36,19.20
2009,08,20,12,37,19.30
2009,08,20,12,38,19.40
2009,08,20,12,39,19.40
2009,08,20,12,40,19.40
2009,08,20,12,41,19.50
2009,08,20,12,42,19.70
2009,08,20,12,43,19.90
2009,08,20,12,44,19.90
2009,08,20,12,45,20.00
2009,08,20,12,46,20.20
2009,08,20,12,47,20.40
2009,08,20,12,48,20.50
2009,08,20,12,49,20.50
2009,08,20,12,50,20.60
2009,08,20,12,51,20.70
2009,08,20,12,52,20.80
2009,08,20,12,53,20.90
2009,08,20,12,54,21.00
2009,08,20,12,55,21.00
2009,08,20,12,56,21.00
2009,08,20,12,57,21.10
2009,08,20,12,58,21.10
2009,08,20,12,59,21.10
2009,08,20,13,00,21.20
2009,08,20,13,01,21.10
2009,08,20,13,02,21.00
2009,08,20,13,03,20.80
2009,08,20,13,04,20.70
2009,08,20,13,05,20.70
2009,08,20,13,06,20.60
2009,08,20,13,07,20.60
2009,08,20,13,08,20.60
2009,08,20,13,09,20.60
2009,08,20,13,10,20.60
2009,08,20,13,11,20.60
2009,08,20,13,12,20.60
2009,08,20,13,13,20.70
2009,08,20,13,14,20.70
2009,08,20,13,15,20.70
2009,08,20,13,16,20.90
2009,08,20,13,17,21.00
2009,08,20,13,18,21.00
2009,08,20,13,19,21.00
2009,08,20,13,20,21.10
2009,08,20,13,21,21.10
2009,08,20,13,22,21.10
2009,08,20,13,23,21.10
2009,08,20,13,24,21.20
2009,08,20,13,25,21.30
2009,08,20,13,26,21.30
2009,08,20,13,27,21.40
2009,08,20,13,28,21.50
2009,08,20,13,29,21.60
2009,08,20,13,30,21.60
2009,08,20,13,31,21.70
2009,08,20,13,32,21.70
2009,08,20,13,33,21.70
2009,08,20,13,34,21.80
2009,08,20,13,35,21.80
2009,08,20,13,36,21.90
2009,08,20,13,37,22.00
2009,08,20,13,38,22.00
2009,08,20,13,39,22.00
2009,08,20,13,40,22.00
2009,08,20,13,41,22.00
2009,08,20,13,42,22.10
2009,08,20,13,43,22.10
2009,08,20,13,44,22.20
2009,08,20,13,45,22.30
2009,08,20,13,46,22.40
2009,08,20,13,47,22.50
2009,08,20,13,48,22.60
2009,08,20,13,49,22.80
2009,08,20,13,50,22.90
2009,08,20,13,51,22.90
2009,08,20,13,52,22.90
2009,08,20,13,53,22.90
2009,08,20,13,54,22.90
2009,08,20,13,55,22.90
2009,08,20,13,56,22.90
2009,08,20,13,57,22.90
2009,08,20,13,58,22.90
2009,08,20,13,59,22.90
2009,08,20,14,00,22.90
2009,08,20,14,01,22.90
2009,08,20,14,02,23.00
2009,08,20,14,03,23.00
2009,08,20,14,04,22.90
2009,08,20,14,05,22.90
2009,08,20,14,06,22.90
2009,08,20,14,07,22.90
2009,08,20,14,08,22.90
2009,08,20,14,09,22.90
2009,08,20,14,10,22.90
2009,08,20,14,11,22.90
2009,08,20,14,12,22.80
2009,08,20,14,13,22.70
2009,08,20,14,14,22.60
2009,08,20,14,15,22.70
2009,08,20,14,16,22.70
2009,08,20,14,17,22.90
2009,08,20,14,18,23.00
2009,08,20,14,19,23.10
2009,08,20,14,20,23.10
2009,08,20,14,21,23.10
2009,08,20,14,22,23.10
2009,08,20,14,23,23.20
2009,08,20,14,24,23.30
2009,08,20,14,25,23.30
2009,08,20,14,26,23.40
2009,08,20,14,27,23.50
2009,08,20,14,28,23.60
2009,08,20,14,29,23.60
2009,08,20,14,30,23.60
2009,08,20,14,31,23.60
2009,08,20,14,32,23.50
2009,08,20,14,33,23.40
2009,08,20,14,34,23.60
2009,08,20,14,35,23.60
2009,08,20,14,36,23.50
2009,08,20,14,37,23.40
2009,08,20,14,38,23.40
2009,08,20,14,39,23.40
2009,08,20,14,40,23.50
2009,08,20,14,41,23.60
2009,08,20,14,42,23.60
2009,08,20,14,43,23.50
2009,08,20,14,44,23.40
2009,08,20,14,45,23.30
2009,08,20,14,46,23.30
2009,08,20,14,47,23.30
2009,08,20,14,48,23.30
2009,08,20,14,49,23.30
2009,08,20,14,50,23.40
2009,08,20,14,51,23.40
2009,08,20,14,52,23.40
2009,08,20,14,53,23.50
2009,08,20,14,54,23.60
2009,08,20,14,55,23.60
2009,08,20,14,56,23.50
2009,08,20,14,57,23.40
2009,08,20,14,58,23.50
2009,08,20,14,59,23.60
2009,08,20,15,00,23.60
2009,08,20,15,01,23.70
2009,08,20,15,02,23.70
2009,08,20,15,03,23.70
2009,08,20,15,04,23.70
2009,08,20,15,05,23.80
2009,08,20,15,06,23.80
2009,08,20,15,07,23.70
2009,08,20,15,08,23.70
2009,08,20,15,09,23.70
2009,08,20,15,10,23.70
2009,08,20,15,11,23.60
2009,08,20,15,12,23.50
2009,08,20,15,13,23.30
2009,08,20,15,14,23.30
2009,08,20,15,15,23.20
2009,08,20,15,16,23.10
2009,08,20,15,17,23.00
2009,08,20,15,18,22.80
2009,08,20,15,19,22.70
2009,08,20,15,20,22.80
2009,08,20,15,21,22.70
2009,08,20,15,22,22.70
2009,08,20,15,23,22.80
2009,08,20,15,24,22.90
2009,08,20,15,25,22.90
2009,08,20,15,26,22.70
2009,08,20,15,27,22.60
2009,08,20,15,28,22.50
2009,08,20,15,29,22.40
2009,08,20,15,30,22.40
2009,08,20,15,31,22.40
2009,08,20,15,32,22.40
2009,08,20,15,33,22.40
2009,08,20,15,34,22.40
2009,08,20,15,35,22.40
2009,08,20,15,36,22.60
2009,08,20,15,37,22.60
2009,08,20,15,38,22.70
2009,08,20,15,39,22.70
2009,08,20,15,40,22.70
2009,08,20,15,41,22.80
2009,08,20,15,42,22.80
2009,08,20,15,43,22.90
2009,08,20,15,44,22.80
2009,08,20,15,45,22.70
2009,08,20,15,46,22.70
2009,08,20,15,47,22.70
2009,08,20,15,48,22.70
2009,08,20,15,49,22.70
2009,08,20,15,50,22.70
2009,08,20,15,51,22.60
2009,08,20,15,52,22.50
2009,08,20,15,53,22.50
2009,08,20,15,54,22.50
2009,08,20,15,55,22.50
2009,08,20,15,56,22.60
2009,08,20,15,57,22.70
2009,08,20,15,58,22.80
2009,08,20,15,59,22.80
2009,08,20,16,00,22.90
2009,08,20,16,01,22.90
2009,08,20,16,02,22.90
2009,08,20,16,03,23.10
2009,08,20,16,04,23.10
2009,08,20,16,05,23.10
2009,08,20,16,06,23.00
2009,08,20,16,07,22.90
2009,08,20,16,08,22.90
2009,08,20,16,09,22.90
2009,08,20,16,10,22.90
2009,08,20,16,11,22.70
2009,08,20,16,12,22.70
2009,08,20,16,13,22.70
2009,08,20,16,14,22.70
2009,08,20,16,15,22.80
2009,08,20,16,16,22.90
2009,08,20,16,17,22.90
2009,08,20,16,18,22.90
2009,08,20,16,19,23.00
2009,08,20,16,20,23.10
2009,08,20,16,21,23.10
2009,08,20,16,22,23.10
2009,08,20,16,23,23.10
2009,08,20,16,24,23.10
2009,08,20,16,25,23.00
2009,08,20,16,26,22.90
2009,08,20,16,27,22.60
2009,08,20,16,28,22.50
2009,08,20,16,29,22.40
2009,08,20,16,30,22.40
2009,08,20,16,31,22.40
2009,08,20,16,32,22.40
2009,08,20,16,33,22.40
2009,08,20,16,34,22.40
2009,08,20,16,35,22.50
2009,08,20,16,36,22.50
2009,08,20,16,37,22.60
2009,08,20,16,38,22.60
2009,08,20,16,39,22.70
2009,08,20,16,40,22.60
2009,08,20,16,41,22.60
2009,08,20,16,42,22.50
2009,08,20,16,43,22.50
2009,08,20,16,44,22.50
2009,08,20,16,45,22.60
2009,08,20,16,46,22.70
2009,08,20,16,47,22.70
2009,08,20,16,48,22.60
2009,08,20,16,49,22.60
2009,08,20,16,50,22.60
2009,08,20,16,51,22.60
2009,08,20,16,52,22.70
2009,08,20,16,53,22.70
2009,08,20,16,54,22.80
2009,08,20,16,55,22.90
2009,08,20,16,56,23.00
2009,08,20,16,57,23.20
2009,08,20,16,58,23.20
2009,08,20,16,59,23.30
2009,08,20,17,00,23.30
2009,08,20,17,01,23.30
2009,08,20,17,02,23.20
2009,08,20,17,03,23.10
2009,08,20,17,04,23.00
2009,08,20,17,05,22.90
2009,08,20,17,06,22.70
2009,08,20,17,07,22.50
2009,08,20,17,08,22.40
2009,08,20,17,09,22.30
2009,08,20,17,10,22.30
2009,08,20,17,11,22.40
2009,08,20,17,12,22.50
2009,08,20,17,13,22.50
2009,08,20,17,14,22.60
2009,08,20,17,15,22.70
2009,08,20,17,16,22.90
2009,08,20,17,17,22.90
2009,08,20,17,18,22.90
2009,08,20,17,19,23.10